| time (UTC) | temp F | wind direction | speed MPH | gust MPH | rain 1hr in | rain 24hr in | rain mn in | humidity % | barometer mb |
| 20260505111505 | 40 | 18 | 5.0 | 13.0 | 0.02 | 0.13 | 0.04 | 94 | 1007.2 |
| 20260505110505 | 40 | 16 | 4.0 | 12.0 | 0.01 | 0.12 | 0.03 | 94 | 1007.1 |
| 20260505102005 | 44 | 16 | 0.0 | 0.0 | 0.00 | 0.11 | 0.02 | 93 | 1006.1 |
| 20260505101504 | 44 | 16 | 0.0 | 0.0 | 0.00 | 0.11 | 0.02 | 93 | 1006.1 |
| 20260505100504 | 44 | 16 | 0.0 | 0.0 | 0.00 | 0.11 | 0.02 | 93 | 1006.0 |
| 20260505100004 | 44 | 16 | 0.0 | 0.0 | 0.00 | 0.11 | 0.02 | 93 | 1005.9 |
| 20260505095504 | 44 | 16 | 0.0 | 0.0 | 0.00 | 0.11 | 0.02 | 93 | 1006.0 |
| 20260505095004 | 44 | 16 | 1.0 | 2.0 | 0.00 | 0.11 | 0.02 | 93 | 1006.1 |
| 20260505094504 | 44 | 16 | 2.0 | 3.0 | 0.00 | 0.11 | 0.02 | 93 | 1005.7 |
| 20260505094004 | 44 | 9 | 2.0 | 3.0 | 0.00 | 0.11 | 0.02 | 93 | 1005.3 |
| 20260505093504 | 44 | 9 | 0.0 | 1.0 | 0.00 | 0.11 | 0.02 | 93 | 1005.4 |
| 20260505093004 | 44 | 9 | 0.0 | 2.0 | 0.00 | 0.11 | 0.02 | 93 | 1005.6 |
| 20260505092504 | 44 | 9 | 0.0 | 0.0 | 0.00 | 0.11 | 0.02 | 93 | 1005.9 |
| 20260505091504 | 44 | 9 | 0.0 | 2.0 | 0.00 | 0.11 | 0.02 | 93 | 1006.0 |
| 20260505091005 | 44 | 9 | 0.0 | 1.0 | 0.00 | 0.11 | 0.02 | 93 | 1006.0 |
| 20260505090505 | 44 | 9 | 0.0 | 2.0 | 0.00 | 0.11 | 0.02 | 93 | 1006.0 |
| 20260505090005 | 44 | 12 | 0.0 | 2.0 | 0.00 | 0.11 | 0.02 | 93 | 1006.0 |
| 20260505085505 | 44 | 12 | 0.0 | 2.0 | 0.00 | 0.11 | 0.02 | 92 | 1005.9 |
| 20260505085004 | 44 | 12 | 0.0 | 2.0 | 0.00 | 0.11 | 0.02 | 92 | 1005.9 |
| 20260505084504 | 44 | 12 | 0.0 | 3.0 | 0.00 | 0.11 | 0.02 | 92 | 1005.8 |
| 20260505084004 | 44 | 12 | 1.0 | 2.0 | 0.00 | 0.11 | 0.02 | 92 | 1005.8 |
| 20260505083504 | 44 | 12 | 1.0 | 2.0 | 0.00 | 0.11 | 0.02 | 92 | 1005.7 |
| 20260505083004 | 44 | 12 | 0.0 | 3.0 | 0.00 | 0.11 | 0.02 | 92 | 1005.7 |
| 20260505082004 | 44 | 12 | 0.0 | 2.0 | 0.00 | 0.11 | 0.02 | 92 | 1006.2 |
| 20260505081504 | 44 | 12 | 1.0 | 2.0 | 0.00 | 0.11 | 0.02 | 92 | 1006.4 |
| 20260505080004 | 44 | 12 | 0.0 | 1.0 | 0.00 | 0.11 | 0.02 | 92 | 1006.5 |
| 20260505075504 | 44 | 12 | 0.0 | 1.0 | 0.00 | 0.11 | 0.02 | 92 | 1006.5 |
| 20260505075004 | 44 | 12 | 0.0 | 2.0 | 0.01 | 0.11 | 0.02 | 91 | 1006.6 |
| 20260505074504 | 44 | 12 | 0.0 | 1.0 | 0.01 | 0.11 | 0.02 | 91 | 1006.7 |
| 20260505073505 | 44 | 12 | 1.0 | 3.0 | 0.02 | 0.11 | 0.02 | 91 | 1006.7 |
| 20260505073004 | 44 | 12 | 2.0 | 3.0 | 0.02 | 0.11 | 0.02 | 92 | 1006.8 |
| 20260505072004 | 44 | 13 | 2.0 | 3.0 | 0.02 | 0.11 | 0.02 | 92 | 1007.0 |
| 20260505070504 | 45 | 13 | 1.0 | 3.0 | 0.02 | 0.11 | 0.02 | 93 | 1006.9 |
| 20260505070004 | 45 | 13 | 2.0 | 3.0 | 0.02 | 0.11 | 0.02 | 93 | 1007.0 |
| 20260505065504 | 45 | 15 | 1.0 | 3.0 | 0.02 | 0.11 | 0.02 | 93 | 1007.1 |
| 20260505065004 | 45 | 15 | 0.0 | 3.0 | 0.01 | 0.10 | 0.01 | 93 | 1007.2 |
| 20260505064504 | 45 | 15 | 0.0 | 0.0 | 0.01 | 0.10 | 0.01 | 93 | 1007.3 |
| 20260505064004 | 45 | 15 | 0.0 | 0.0 | 0.00 | 0.09 | 0.00 | 93 | 1007.2 |
| 20260505063504 | 45 | 15 | 0.0 | 0.0 | 0.00 | 0.09 | 0.00 | 93 | 1007.2 |
| 20260505063004 | 45 | 15 | 0.0 | 0.0 | 0.00 | 0.09 | 0.00 | 93 | 1007.3 |
| 20260505062504 | 45 | 15 | 0.0 | 0.0 | 0.00 | 0.09 | 0.00 | 93 | 1007.2 |
| 20260505062004 | 45 | 15 | 0.0 | 0.0 | 0.01 | 0.09 | 0.00 | 93 | 1007.2 |
| 20260505061504 | 45 | 15 | 0.0 | 0.0 | 0.01 | 0.09 | 0.00 | 93 | 1007.2 |
| 20260505061004 | 45 | 15 | 0.0 | 0.0 | 0.01 | 0.09 | 0.00 | 93 | 1007.2 |
| 20260505055005 | 45 | 15 | 0.0 | 0.0 | 0.03 | 0.09 | 0.09 | 93 | 1007.3 |
| 20260505054504 | 45 | 15 | 0.0 | 0.0 | 0.03 | 0.09 | 0.09 | 93 | 1007.2 |
| 20260505054004 | 45 | 15 | 0.0 | 2.0 | 0.03 | 0.09 | 0.09 | 93 | 1007.0 |
| 20260505052504 | 45 | 15 | 0.0 | 0.0 | 0.04 | 0.09 | 0.09 | 92 | 1007.1 |
| 20260505052004 | 45 | 15 | 0.0 | 3.0 | 0.03 | 0.08 | 0.08 | 92 | 1007.3 |
| 20260505051504 | 45 | 15 | 1.0 | 3.0 | 0.03 | 0.08 | 0.08 | 92 | 1007.4 |
| 20260505051004 | 45 | 16 | 2.0 | 8.0 | 0.03 | 0.08 | 0.08 | 92 | 1007.6 |
| 20260505050504 | 45 | 15 | 4.0 | 8.0 | 0.02 | 0.07 | 0.07 | 92 | 1007.7 |
| 20260505041004 | 46 | 15 | 0.0 | 1.0 | 0.03 | 0.05 | 0.05 | 88 | 1007.0 |
| 20260505040504 | 46 | 15 | 0.0 | 1.0 | 0.03 | 0.05 | 0.05 | 88 | 1006.8 |
| 20260505040005 | 46 | 15 | 0.0 | 1.0 | 0.02 | 0.04 | 0.04 | 86 | 1006.7 |
| 20260505035505 | 47 | 15 | 0.0 | 3.0 | 0.02 | 0.04 | 0.04 | 86 | 1006.5 |
| 20260505034504 | 47 | 15 | 0.0 | 3.0 | 0.01 | 0.03 | 0.03 | 85 | 1006.7 |
| 20260505033504 | 48 | 18 | 1.0 | 3.0 | 0.00 | 0.02 | 0.02 | 83 | 1006.7 |
| 20260505033005 | 48 | 15 | 2.0 | 3.0 | 0.00 | 0.02 | 0.02 | 82 | 1006.5 |
| 20260505032504 | 48 | 13 | 1.0 | 7.0 | 0.00 | 0.02 | 0.02 | 79 | 1006.5 |
| 20260505031504 | 49 | 14 | 1.0 | 3.0 | 0.00 | 0.02 | 0.02 | 76 | 1006.2 |
| 20260505030504 | 49 | 13 | 1.0 | 3.0 | 0.00 | 0.02 | 0.02 | 75 | 1006.1 |
| 20260505030006 | 49 | 6 | 0.0 | 1.0 | 0.00 | 0.02 | 0.02 | 77 | 1006.0 |
| 20260505025506 | 49 | 9 | 0.0 | 0.0 | 0.00 | 0.02 | 0.02 | 76 | 1005.9 |
| 20260505025006 | 49 | 8 | 0.0 | 3.0 | 0.00 | 0.02 | 0.02 | 76 | 1005.9 |
| 20260505024506 | 49 | 15 | 0.0 | 0.0 | 0.00 | 0.02 | 0.02 | 74 | 1005.8 |
| 20260505024005 | 50 | 15 | 0.0 | 0.0 | 0.00 | 0.02 | 0.02 | 72 | 1005.7 |
| 20260505022505 | 50 | 15 | 0.0 | 0.0 | 0.00 | 0.02 | 0.02 | 71 | 1005.3 |
| 20260505022006 | 50 | 15 | 0.0 | 0.0 | 0.00 | 0.02 | 0.02 | 70 | 1005.3 |
| 20260505021506 | 50 | 15 | 0.0 | 0.0 | 0.01 | 0.02 | 0.02 | 71 | 1005.2 |
| 20260505020505 | 50 | 15 | 0.0 | 0.0 | 0.02 | 0.02 | 0.02 | 71 | 1005.1 |
| 20260505015506 | 51 | 15 | 0.0 | 1.0 | 0.02 | 0.02 | 0.02 | 69 | 1005.0 |
| 20260505014505 | 51 | 15 | 1.0 | 3.0 | 0.02 | 0.02 | 0.02 | 68 | 1004.9 |
| 20260505013506 | 51 | 16 | 2.0 | 7.0 | 0.02 | 0.02 | 0.02 | 68 | 1004.8 |
| 20260505012506 | 51 | 16 | 0.0 | 3.0 | 0.02 | 0.02 | 0.02 | 67 | 1005.1 |
| 20260505012005 | 51 | 16 | 0.0 | 3.0 | 0.02 | 0.02 | 0.02 | 64 | 1004.9 |
| 20260505011506 | 52 | 16 | 0.0 | 1.0 | 0.01 | 0.01 | 0.01 | 61 | 1005.0 |
| 20260505010505 | 54 | 11 | 5.0 | 12.0 | 0.00 | 0.00 | 0.00 | 54 | 1004.9 |
| 20260505010005 | 55 | 0 | 1.0 | 12.0 | 0.00 | 0.00 | 0.00 | 50 | 1004.8 |
| 20260505005506 | 55 | 13 | 6.0 | 12.0 | 0.00 | 0.00 | 0.00 | 49 | 1004.6 |
| 20260505004505 | 55 | 15 | 2.0 | 5.0 | 0.00 | 0.00 | 0.00 | 46 | 1004.4 |
| 20260505004005 | 55 | 13 | 1.0 | 3.0 | 0.00 | 0.00 | 0.00 | 48 | 1004.2 |
| 20260505003506 | 55 | 13 | 1.0 | 3.0 | 0.00 | 0.00 | 0.00 | 48 | 1004.4 |
| 20260505003006 | 55 | 13 | 0.0 | 3.0 | 0.00 | 0.00 | 0.00 | 48 | 1004.3 |
| 20260505002505 | 55 | 13 | 0.0 | 2.0 | 0.00 | 0.00 | 0.00 | 46 | 1004.3 |
| 20260505002006 | 55 | 13 | 0.0 | 3.0 | 0.00 | 0.00 | 0.00 | 49 | 1004.1 |
| 20260505001506 | 55 | 12 | 0.0 | 1.0 | 0.00 | 0.00 | 0.00 | 51 | 1004.1 |
| 20260505000506 | 55 | 12 | 2.0 | 7.0 | 0.00 | 0.00 | 0.00 | 53 | 1003.9 |
| 20260505000006 | 56 | 11 | 3.0 | 8.0 | 0.00 | 0.00 | 0.00 | 54 | 1003.9 |
| 20260504235505 | 56 | 11 | 0.0 | 5.0 | 0.00 | 0.00 | 0.00 | 51 | 1003.9 |
| 20260504234505 | 56 | 11 | 2.0 | 8.0 | 0.00 | 0.00 | 0.00 | 45 | 1004.0 |
| 20260504233505 | 56 | 0 | 0.0 | 2.0 | 0.00 | 0.00 | 0.00 | 46 | 1003.9 |
| 20260504233005 | 56 | 82 | 0.0 | 5.0 | 0.00 | 0.00 | 0.00 | 48 | 1004.0 |
| 20260504232505 | 58 | 156 | 5.0 | 14.0 | 0.00 | 0.00 | 0.00 | 43 | 1004.0 |
| 20260504232006 | 60 | 96 | 3.0 | 16.0 | 0.00 | 0.00 | 0.00 | 35 | 1003.5 |
| 20260504231506 | 60 | 353 | 6.0 | 20.0 | 0.00 | 0.00 | 0.00 | 33 | 1003.1 |
| 20260504231006 | 61 | 109 | 6.0 | 14.0 | 0.00 | 0.00 | 0.00 | 33 | 1002.9 |
| 20260504230505 | 61 | 351 | 4.0 | 13.0 | 0.00 | 0.00 | 0.00 | 32 | 1002.6 |
| 20260504225006 | 64 | 13 | 3.0 | 8.0 | 0.00 | 0.00 | 0.00 | 26 | 1002.0 |
| 20260504224505 | 64 | 4 | 1.0 | 9.0 | 0.00 | 0.00 | 0.00 | 26 | 1002.0 |
| 20260504223005 | 65 | 10 | 1.0 | 3.0 | 0.00 | 0.00 | 0.00 | 26 | 1001.8 |
| 20260504222506 | 65 | 16 | 3.0 | 9.0 | 0.00 | 0.00 | 0.00 | 25 | 1001.9 |
| 20260504222006 | 65 | 18 | 1.0 | 8.0 | 0.00 | 0.00 | 0.00 | 27 | 1001.9 |
| 20260504221506 | 65 | 5 | 0.0 | 1.0 | 0.00 | 0.00 | 0.00 | 26 | 1001.7 |
| 20260504221005 | 66 | 5 | 0.0 | 2.0 | 0.00 | 0.00 | 0.00 | 26 | 1001.8 |
| 20260504220505 | 66 | 5 | 1.0 | 7.0 | 0.00 | 0.00 | 0.00 | 27 | 1001.8 |
| 20260504220005 | 65 | 17 | 7.0 | 12.0 | 0.00 | 0.00 | 0.00 | 27 | 1001.6 |
| 20260504215006 | 64 | 17 | 1.0 | 5.0 | 0.00 | 0.00 | 0.00 | 27 | 1001.8 |
| 20260504214505 | 64 | 17 | 1.0 | 8.0 | 0.00 | 0.00 | 0.00 | 27 | 1001.9 |
| 20260504214006 | 64 | 12 | 2.0 | 5.0 | 0.00 | 0.00 | 0.00 | 27 | 1002.0 |
| 20260504213505 | 64 | 0 | 3.0 | 9.0 | 0.00 | 0.00 | 0.00 | 27 | 1002.0 |
| 20260504213005 | 64 | 0 | 3.0 | 9.0 | 0.00 | 0.00 | 0.00 | 26 | 1001.9 |
| 20260504212505 | 65 | 0 | 3.0 | 12.0 | 0.00 | 0.00 | 0.00 | 27 | 1001.9 |
| 20260504212006 | 65 | 16 | 5.0 | 12.0 | 0.00 | 0.00 | 0.00 | 27 | 1001.9 |
| 20260504211506 | 65 | 12 | 6.0 | 15.0 | 0.00 | 0.00 | 0.00 | 27 | 1001.8 |
| 20260504211005 | 65 | 16 | 7.0 | 14.0 | 0.00 | 0.00 | 0.00 | 27 | 1001.9 |
| 20260504210505 | 66 | 12 | 4.0 | 10.0 | 0.00 | 0.00 | 0.00 | 26 | 1002.2 |
| 20260504205006 | 65 | 328 | 5.0 | 14.0 | 0.00 | 0.00 | 0.00 | 26 | 1002.0 |
| 20260504203505 | 67 | 12 | 2.0 | 13.0 | 0.00 | 0.00 | 0.00 | 25 | 1002.0 |
| 20260504203006 | 67 | 321 | 4.0 | 12.0 | 0.00 | 0.00 | 0.00 | 24 | 1002.0 |
| 20260504202505 | 66 | 72 | 8.0 | 15.0 | 0.00 | 0.00 | 0.00 | 24 | 1002.0 |
| 20260504202006 | 66 | 250 | 7.0 | 14.0 | 0.00 | 0.00 | 0.00 | 25 | 1002.3 |
| 20260504201505 | 65 | 340 | 1.0 | 8.0 | 0.00 | 0.00 | 0.00 | 25 | 1002.5 |
| 20260504200505 | 65 | 22 | 5.0 | 13.0 | 0.00 | 0.00 | 0.00 | 25 | 1002.6 |
| 20260504200006 | 65 | 19 | 7.0 | 12.0 | 0.00 | 0.00 | 0.00 | 24 | 1002.5 |
| 20260504195506 | 66 | 19 | 7.0 | 14.0 | 0.00 | 0.00 | 0.00 | 24 | 1002.5 |
| 20260504195005 | 66 | 11 | 4.0 | 10.0 | 0.00 | 0.00 | 0.00 | 26 | 1002.6 |
| 20260504194505 | 66 | 15 | 6.0 | 14.0 | 0.00 | 0.00 | 0.00 | 25 | 1002.6 |
| 20260504194005 | 65 | 17 | 5.0 | 12.0 | 0.00 | 0.00 | 0.00 | 26 | 1002.5 |
| 20260504193506 | 65 | 15 | 7.0 | 17.0 | 0.00 | 0.00 | 0.00 | 25 | 1002.5 |
| 20260504193005 | 65 | 2 | 7.0 | 17.0 | 0.00 | 0.00 | 0.00 | 26 | 1002.5 |
| 20260504192505 | 65 | 0 | 7.0 | 15.0 | 0.00 | 0.00 | 0.00 | 25 | 1002.6 |
| 20260504192005 | 65 | 6 | 5.0 | 18.0 | 0.00 | 0.00 | 0.00 | 25 | 1002.4 |
| 20260504191505 | 66 | 12 | 13.0 | 24.0 | 0.00 | 0.00 | 0.00 | 25 | 1002.4 |
| 20260504191005 | 66 | 17 | 10.0 | 16.0 | 0.00 | 0.00 | 0.00 | 22 | 1002.2 |
| 20260504190506 | 67 | 15 | 7.0 | 14.0 | 0.00 | 0.00 | 0.00 | 22 | 1002.1 |
| 20260504190005 | 69 | 348 | 9.0 | 16.0 | 0.00 | 0.00 | 0.00 | 21 | 1002.2 |
| 20260504185505 | 71 | 20 | 5.0 | 13.0 | 0.00 | 0.00 | 0.00 | 17 | 1002.3 |
| 20260504185005 | 71 | 16 | 2.0 | 8.0 | 0.00 | 0.00 | 0.00 | 18 | 1002.4 |
| 20260504184506 | 71 | 312 | 5.0 | 8.0 | 0.00 | 0.00 | 0.00 | 18 | 1002.1 |
| 20260504184005 | 70 | 14 | 3.0 | 12.0 | 0.00 | 0.00 | 0.00 | 18 | 1002.2 |
| 20260504183005 | 69 | 16 | 3.0 | 10.0 | 0.00 | 0.00 | 0.00 | 19 | 1002.4 |
| 20260504182505 | 69 | 223 | 5.0 | 12.0 | 0.00 | 0.00 | 0.00 | 21 | 1002.5 |
| 20260504182005 | 69 | 198 | 5.0 | 8.0 | 0.00 | 0.00 | 0.00 | 20 | 1002.5 |
| 20260504181505 | 68 | 199 | 5.0 | 12.0 | 0.00 | 0.00 | 0.00 | 20 | 1002.6 |
| 20260504181005 | 68 | 195 | 4.0 | 10.0 | 0.00 | 0.00 | 0.00 | 21 | 1002.7 |
| 20260504180505 | 67 | 188 | 2.0 | 9.0 | 0.00 | 0.00 | 0.00 | 21 | 1002.7 |
| 20260504180005 | 67 | 206 | 2.0 | 9.0 | 0.00 | 0.00 | 0.00 | 22 | 1002.8 |
| 20260504175505 | 67 | 322 | 2.0 | 8.0 | 0.00 | 0.00 | 0.00 | 21 | 1002.8 |
| 20260504174005 | 67 | 13 | 3.0 | 8.0 | 0.00 | 0.00 | 0.00 | 21 | 1003.3 |
| 20260504173505 | 66 | 12 | 3.0 | 5.0 | 0.00 | 0.00 | 0.00 | 22 | 1003.3 |
| 20260504173005 | 67 | 13 | 6.0 | 12.0 | 0.00 | 0.00 | 0.00 | 22 | 1003.6 |
| 20260504172506 | 67 | 127 | 3.0 | 7.0 | 0.00 | 0.00 | 0.00 | 22 | 1003.6 |
| 20260504172005 | 67 | 15 | 2.0 | 12.0 | 0.00 | 0.00 | 0.00 | 23 | 1003.6 |
| 20260504171505 | 67 | 17 | 3.0 | 9.0 | 0.00 | 0.00 | 0.00 | 24 | 1003.7 |
| 20260504171005 | 67 | 15 | 7.0 | 20.0 | 0.00 | 0.00 | 0.00 | 23 | 1003.8 |
| 20260504170505 | 67 | 14 | 3.0 | 7.0 | 0.00 | 0.00 | 0.00 | 24 | 1003.8 |
| 20260504141005 | 59 | 0 | 0.0 | 1.0 | 0.00 | 0.00 | 0.00 | 33 | 1005.2 |
| 20260504140505 | 59 | 0 | 0.0 | 0.0 | 0.00 | 0.00 | 0.00 | 32 | 1005.1 |
| 20260504130505 | 50 | 13 | 0.0 | 0.0 | 0.00 | 0.00 | 0.00 | 38 | 1005.2 |